GFSSW_700_temp_159.txt.gz
Temp
12 12 12 12 12 12 12 12 12 12 12 12 12 12 12 12 12 12 12 12 12 12 12 12 11 10 9 10 10 10 11 9 9 9 9 9 9 10 10 11 11 10 9 9 10
12 12 12 12 11 11 11 11 12 12 12 12 12 12 12 12 12 12 12 12 12 12 12 12 11 10 10 10 10 9 10 10 10 9 9 9 10 10 10 11 10 10 10 9 9
12 12 12 12 11 11 11 11 11 12 12 12 12 12 12 12 12 12 12 12 12 12 11 11 11 11 11 10 10 10 9 10 9 9 9 10 10 9 10 10 10 10 11 9 9
12 12 12 12 11 11 11 11 11 11 11 12 12 12 12 12 11 11 12 12 12 12 12 12 11 11 11 11 11 11 10 9 9 9 9 9 10 10 10 10 10 10 10 10 9
12 12 11 11 11 11 11 11 11 11 11 11 11 12 12 11 11 11 11 12 12 12 12 11 10 10 10 11 11 11 11 10 9 9 9 9 10 10 10 9 10 10 9 9 8
12 12 11 11 11 11 11 11 11 11 11 11 11 11 11 11 11 11 11 12 12 12 11 11 11 11 11 10 11 10 10 10 9 9 9 10 10 9 9 9 10 9 9 9 8
12 12 11 11 11 11 11 11 11 11 11 11 11 11 11 11 11 11 11 12 11 12 11 11 11 11 11 11 10 10 10 9 9 9 9 9 8 9 9 9 9 9 9 9 9
12 12 11 11 11 11 11 11 11 10 10 10 10 10 10 11 11 11 11 11 11 11 11 11 11 11 11 11 11 10 9 9 9 9 8 8 9 8 9 9 9 9 9 9 9
12 12 11 11 11 10 10 10 10 10 10 10 10 10 10 10 11 11 11 11 11 11 11 11 11 11 11 11 11 11 11 10 10 10 9 9 9 9 9 9 9 9 9 9 8
12 12 11 11 10 10 10 10 10 10 10 10 10 10 10 10 10 10 11 11 11 11 11 11 11 11 11 11 12 12 12 11 11 10 10 10 10 9 10 8 8 9 9 9 9
12 12 11 11 10 10 9 10 10 10 10 10 10 10 10 10 10 10 10 11 11 11 11 11 11 11 12 12 12 12 12 12 12 11 11 11 10 10 9 9 8 9 9 9 9
12 11 11 11 10 10 9 9 10 10 10 11 11 10 10 10 10 11 11 11 11 11 11 11 11 12 11 11 12 12 13 12 12 12 11 11 11 10 9 9 9 9 9 9 9
12 12 11 11 11 10 9 9 10 11 11 11 11 11 11 11 11 11 11 11 11 11 11 11 12 12 12 13 13 13 13 12 13 12 11 11 11 11 11 10 9 9 9 9 9
11 11 11 11 11 10 10 10 10 10 11 12 11 11 11 11 11 11 11 11 11 11 11 12 12 13 13 13 13 13 13 12 12 12 12 11 11 12 12 11 10 9 9 9 9
11 11 11 11 11 11 11 10 10 10 9 12 12 12 11 11 11 11 11 11 11 11 11 12 12 13 13 14 14 14 14 13 13 11 11 12 11 13 13 13 12 10 10 10 9
11 11 11 11 11 11 11 10 10 10 11 12 12 12 12 12 12 11 11 11 11 12 12 13 13 13 13 13 13 13 13 13 12 11 10 12 12 12 13 13 12 12 11 10 9
11 11 11 11 11 11 11 10 10 10 12 13 13 13 13 12 12 12 12 13 13 12 13 13 13 13 14 14 13 13 13 11 9 8 8 12 11 13 12 12 12 12 11 11 9
11 11 11 11 11 11 11 10 10 12 12 13 13 13 13 13 13 12 12 13 13 13 13 13 14 14 14 14 14 13 13 13 9 6 10 11 11 13 12 12 12 12 11 12 11
11 11 11 11 11 11 11 10 12 12 12 13 13 13 13 13 13 13 13 13 13 13 13 13 13 14 14 14 14 13 13 13 13 11 11 11 11 12 12 13 13 12 11 11 12
10 11 11 10 11 11 11 11 12 12 12 12 13 13 13 13 13 13 13 13 13 13 13 13 13 13 13 14 13 13 13 13 13 10 10 9 10 12 12 12 12 11 11 11 11
10 10 10 10 10 10 10 12 12 11 11 12 12 13 13 13 13 13 13 13 13 13 13 13 13 12 13 12 13 13 13 13 12 11 8 7 10 12 12 12 12 11 11 11 11
9 9 9 8 9 9 10 11 11 12 11 11 12 12 13 13 13 13 12 13 13 13 13 12 12 11 10 11 11 12 12 12 12 10 10 9 11 12 12 12 12 11 11 11 11
8 8 8 8 8 9 9 9 10 12 11 12 12 12 12 12 13 12 12 12 12 12 12 12 12 11 9 10 11 12 11 11 11 11 11 9 11 12 12 12 11 11 10 10 10
7 8 7 7 8 8 8 9 10 11 11 11 12 12 12 12 12 12 12 12 12 12 12 12 11 11 11 11 11 10 11 11 10 10 11 11 11 11 11 11 10 10 10 10 10
6 7 7 7 7 7 7 8 9 11 11 11 12 12 12 12 12 12 12 12 12 12 12 11 11 11 11 10 10 10 10 10 9 9 9 10 10 10 10 9 9 10 10 10 10
4 5 6 7 7 7 7 7 8 8 10 11 11 12 12 12 12 12 12 12 12 11 11 11 11 11 11 11 11 10 10 10 9 9 9 9 9 9 9 9 9 9 9 9 9
3 4 5 6 6 6 7 7 8 8 10 11 11 11 12 12 12 12 12 12 12 12 11 11 11 10 10 10 10 9 10 9 9 9 9 9 9 9 8 8 8 8 8 8 8

GFSSW_700_temp_162.txt.gz
Temp
12 11 11 11 11 11 11 11 11 12 12 12 12 12 12 12 12 12 12 12 12 12 12 12 11 11 11 12 11 11 10 10 10 9 9 10 10 9 10 10 10 10 9 9 9
12 12 11 11 11 11 11 11 11 12 12 12 12 12 12 12 12 12 12 12 11 11 12 11 10 11 11 11 10 10 10 9 9 9 9 10 10 9 10 10 10 10 10 9 10
12 12 11 11 11 11 11 11 11 11 11 12 12 12 12 12 12 12 11 11 11 11 11 11 10 10 11 11 10 10 10 10 9 9 9 10 9 10 10 10 9 10 10 10 10
12 11 11 11 11 11 11 11 11 11 11 11 12 12 12 12 11 12 12 11 12 11 11 11 10 10 11 10 10 10 10 9 9 9 9 10 10 10 10 9 9 9 9 10 9
11 11 11 11 11 11 11 11 11 11 11 11 11 12 12 11 11 11 12 11 11 12 11 11 11 11 11 11 10 10 10 9 8 9 9 9 10 10 9 9 9 9 9 9 9
12 11 11 11 11 11 11 11 11 11 11 11 11 11 11 11 11 11 11 12 11 11 11 10 11 11 11 11 10 10 10 10 8 9 9 9 9 10 10 9 9 9 9 8 9
12 12 11 11 11 11 11 11 11 11 11 11 11 11 10 10 10 11 11 11 11 11 10 11 11 11 11 11 10 10 10 9 9 9 9 8 9 10 10 9 9 8 9 8 8
12 12 11 11 11 11 11 10 10 10 10 10 10 10 10 10 11 11 11 11 11 11 10 11 11 11 12 11 10 10 9 9 9 9 9 9 9 10 10 9 9 8 9 8 8
12 12 11 11 11 11 10 10 10 10 10 10 10 10 9 10 11 11 11 11 11 11 11 11 11 11 12 11 11 10 10 10 9 9 9 9 9 10 10 9 10 9 9 8 8
12 12 11 11 11 10 10 10 10 10 10 10 10 10 9 9 10 10 10 11 11 10 11 11 11 11 11 11 11 11 11 11 10 10 10 9 9 10 9 9 10 9 9 9 8
12 12 11 11 11 10 10 10 10 10 11 10 10 10 10 9 9 10 10 10 11 10 11 11 11 11 12 12 11 11 11 11 11 10 10 10 10 9 9 9 10 10 9 9 9
11 12 11 11 11 10 11 11 11 10 11 10 10 10 10 10 10 10 10 10 11 11 10 11 11 11 11 11 11 11 12 12 12 11 10 10 11 10 9 10 10 10 10 9 9
11 12 12 11 11 11 11 11 11 11 11 11 10 11 11 10 10 10 10 10 10 11 11 11 11 11 11 11 12 12 13 13 12 11 10 10 11 11 11 10 9 10 9 9 9
11 11 11 11 11 11 11 11 10 11 11 11 11 11 11 11 11 10 10 10 10 10 11 11 11 12 12 12 13 13 14 13 12 11 11 11 11 12 12 11 10 9 9 10 9
11 11 11 11 11 11 10 10 10 11 9 12 12 12 11 11 11 11 11 11 11 11 11 11 12 12 13 13 13 14 13 13 12 11 11 11 10 13 12 12 12 11 10 10 10
11 11 11 11 11 10 10 10 10 10 11 12 12 12 12 12 11 11 11 11 11 11 11 12 12 12 13 13 13 13 13 13 11 10 10 11 11 13 13 12 12 12 11 10 9
11 11 11 11 11 10 10 10 10 10 12 12 12 12 12 12 12 11 11 11 11 12 12 12 13 13 13 13 13 13 13 10 9 8 8 11 10 13 12 13 12 12 11 10 9
11 11 11 11 11 10 10 10 10 12 12 12 12 12 12 12 12 12 12 12 12 12 12 13 13 13 13 13 13 13 13 12 8 6 9 11 11 13 13 13 13 12 11 11 11
11 11 11 11 11 10 9 10 11 11 11 12 13 12 13 13 12 12 12 12 12 12 12 13 13 13 13 13 13 13 12 13 12 10 9 11 12 12 13 13 13 13 12 11 11
10 10 10 10 10 10 10 10 11 11 11 12 12 13 13 13 13 13 12 13 13 13 13 13 13 13 13 13 13 13 13 12 12 8 9 9 11 13 13 13 13 13 12 11 11
9 9 9 10 10 10 9 10 11 11 11 12 12 12 12 12 13 13 13 13 13 13 13 12 12 12 13 12 13 12 12 12 12 11 7 6 11 13 13 13 13 12 11 11 11
8 8 9 9 9 9 9 10 10 10 11 11 12 12 12 12 12 12 12 13 13 13 13 12 12 11 12 11 11 11 12 12 11 10 10 9 11 12 12 13 13 12 12 11 11
7 8 8 8 8 8 8 8 9 10 11 11 11 12 12 12 12 12 12 12 12 12 12 12 11 10 10 10 11 11 11 11 11 11 11 9 11 12 12 12 12 12 11 11 11
6 7 7 7 7 8 8 8 8 9 11 11 11 12 12 12 12 12 12 12 12 12 12 12 11 11 11 11 11 11 11 10 10 10 10 11 11 11 11 11 11 10 11 10 10
5 5 6 6 6 7 7 7 8 9 10 11 11 11 11 12 12 12 12 12 12 12 12 12 11 11 11 11 11 10 10 10 10 9 9 10 10 10 10 10 10 9 10 10 10
4 4 5 6 5 6 6 6 7 8 8 10 11 11 12 11 12 12 12 12 12 11 11 11 11 11 11 11 10 10 10 10 10 9 9 9 10 9 9 9 9 9 9 9 9
3 3 4 5 5 5 5 6 6 7 8 9 10 11 11 11 12 12 12 12 12 12 11 11 11 11 10 10 9 9 10 10 10 9 9 9 9 8 8 9 9 8 9 9 8

GFSSW_700_temp_165.txt.gz
Temp
11 11 12 12 11 12 12 12 12 12 12 12 12 12 12 12 12 11 11 12 12 12 12 12 11 11 11 11 11 10 10 10 10 10 10 11 10 10 10 10 9 9 9 9 9
11 11 12 11 11 11 11 11 11 11 12 12 12 12 12 12 12 11 11 11 11 12 12 11 11 11 12 11 11 10 10 10 10 10 9 11 10 10 10 9 9 9 9 9 9
11 11 11 11 11 11 11 11 11 11 11 11 12 12 12 12 12 11 11 11 11 12 12 10 11 12 11 11 10 10 10 9 9 9 9 10 10 10 9 9 9 9 9 10 9
11 11 11 11 11 11 11 11 11 11 11 11 11 12 12 12 12 12 11 11 11 12 11 10 11 12 11 11 10 10 10 9 9 8 9 9 10 10 9 9 9 8 9 9 9
11 11 11 11 11 11 12 11 11 11 11 11 11 12 12 11 12 12 11 11 11 11 11 10 11 11 11 11 10 10 10 9 8 9 9 9 9 9 9 9 9 8 9 9 9
11 11 11 11 11 11 12 11 11 11 11 11 11 11 11 11 11 11 11 11 11 11 10 10 11 11 11 11 10 10 10 9 8 9 9 9 9 9 9 9 9 9 9 9 9
11 11 11 11 11 11 11 11 11 11 11 11 11 11 10 10 10 11 11 11 11 11 10 10 11 11 11 11 10 10 10 9 9 9 9 9 9 9 9 9 9 9 9 9 9
11 11 11 11 11 11 11 11 11 10 10 10 11 10 10 10 10 11 11 11 11 11 10 11 11 11 11 11 10 10 10 9 9 9 9 10 10 10 9 9 9 8 8 9 8
11 11 11 11 11 11 11 10 10 10 10 10 10 10 10 10 11 10 11 11 11 10 10 11 11 11 11 11 11 11 11 10 10 10 9 10 10 10 10 9 9 9 8 8 8
12 11 11 11 11 11 11 10 10 10 10 10 10 10 10 10 10 10 10 10 10 10 10 11 11 11 11 11 11 11 10 10 10 11 10 10 10 11 10 9 9 9 9 8 8
11 12 11 11 11 11 11 10 10 10 10 10 10 10 9 10 10 10 10 10 10 10 10 11 11 11 11 11 11 11 11 11 11 10 10 10 10 10 10 10 9 9 9 9 8
11 11 11 11 11 11 11 11 11 10 10 10 10 10 10 9 9 9 10 10 10 10 10 11 11 11 11 11 11 11 11 11 11 11 10 10 11 10 10 11 10 10 9 9 8
11 11 11 11 11 11 11 11 11 11 11 10 10 10 10 10 10 10 10 10 10 10 10 11 11 11 11 11 11 12 12 12 11 11 11 10 12 12 12 11 11 10 9 9 9
11 11 11 11 11 11 11 11 11 11 11 11 11 11 11 10 10 10 10 10 10 10 10 10 11 11 11 12 12 12 12 13 12 11 11 11 12 13 12 12 12 11 11 10 10
11 11 11 11 11 11 11 10 11 11 12 12 11 11 11 11 11 10 10 10 10 10 10 11 11 11 12 13 12 12 13 13 12 11 11 11 11 13 13 13 12 12 11 11 10
11 11 11 11 11 11 10 10 11 11 12 12 12 12 11 11 11 11 11 10 10 11 11 11 11 12 12 13 13 13 13 12 12 11 12 11 11 13 13 13 12 12 12 12 11
11 11 11 11 11 11 10 10 10 11 12 12 12 12 12 11 11 11 11 11 11 11 12 12 12 12 13 13 13 13 12 13 13 13 14 11 10 13 13 13 12 12 13 12 11
10 11 11 11 11 10 10 10 9 11 11 12 12 12 12 12 12 12 11 11 11 11 11 12 13 13 13 13 13 13 12 13 12 13 14 11 11 13 13 13 13 13 12 12 11
9 10 10 10 10 10 9 9 11 11 11 12 12 13 13 12 12 12 12 12 12 12 12 12 12 13 13 13 12 13 12 13 12 11 12 12 13 13 13 13 13 13 13 12 11
9 9 10 10 10 10 9 10 10 11 11 12 12 12 13 13 12 12 12 13 13 13 12 12 12 12 12 12 12 13 13 12 12 12 13 12 10 13 14 13 13 12 13 12 12
8 8 9 9 9 9 9 10 10 10 11 11 12 12 12 13 13 13 13 13 13 13 13 12 12 12 12 12 13 12 12 12 12 11 14 13 13 13 13 13 13 13 13 13 12
8 7 8 8 8 9 9 9 10 10 10 11 11 12 12 12 12 12 13 13 13 13 13 13 12 12 12 12 12 12 11 12 12 11 10 10 12 13 13 13 12 12 12 12 12
7 7 7 7 7 8 8 8 8 9 10 10 11 12 12 12 12 12 12 12 12 12 13 12 12 11 11 10 11 11 11 11 11 11 10 11 12 12 12 12 12 12 12 11 11
6 6 7 7 7 7 7 7 8 8 10 10 11 11 12 12 12 12 12 12 12 12 12 12 12 12 12 12 11 10 11 11 10 10 10 10 11 11 11 11 11 11 11 11 11
5 5 6 5 6 6 7 7 7 8 8 10 11 11 11 12 12 12 12 12 12 12 12 12 12 11 11 11 11 11 11 10 10 10 9 10 10 11 10 10 10 10 9 10 10
4 5 5 5 5 5 6 6 7 7 8 8 9 10 11 11 12 12 12 12 12 11 11 12 12 11 11 11 11 10 10 10 10 10 10 10 10 10 10 9 9 9 9 9 10
3 3 4 4 4 5 5 5 5 6 7 8 8 9 10 11 11 11 11 11 12 12 12 11 11 11 11 11 10 9 11 10 10 10 10 9 8 9 9 9 9 9 9 9 9

GFSSW_700_temp_168.txt.gz
Temp
12 12 12 12 12 12 12 12 12 12 12 12 12 12 12 12 12 11 12 12 12 12 12 12 11 11 11 11 11 11 10 10 9 9 9 10 9 10 10 9 8 9 7 8 9
12 12 12 12 12 12 12 12 12 12 12 12 12 12 12 12 12 12 12 12 12 12 12 12 11 11 11 11 11 10 10 10 10 9 10 10 9 10 9 8 9 9 9 9 9
12 12 12 12 12 12 12 12 12 12 12 12 12 12 12 12 12 11 12 12 12 12 12 11 11 12 10 11 11 10 9 10 10 10 10 10 10 10 9 9 8 9 9 8 9
12 12 12 12 12 12 12 12 12 12 12 12 12 12 12 12 11 12 11 11 12 12 11 11 11 11 11 10 11 9 10 10 9 10 10 9 10 9 9 8 9 9 9 9 9
12 12 12 12 12 12 12 12 12 12 12 11 12 12 12 11 11 12 11 11 11 12 11 11 11 11 11 10 10 9 8 9 9 9 9 10 9 9 9 9 9 9 9 9 8
12 12 12 12 12 12 12 12 12 12 11 11 11 11 11 10 11 11 11 11 11 11 11 11 11 11 10 11 10 10 8 9 9 9 9 9 9 10 9 9 9 9 9 9 9
12 12 12 12 12 12 11 11 11 11 11 11 11 11 10 10 10 10 11 11 11 11 10 11 11 10 10 10 10 9 8 9 9 9 9 9 9 9 9 9 9 9 9 9 9
12 12 12 12 11 11 11 11 11 10 11 11 11 10 9 10 10 11 11 11 11 11 11 11 11 11 10 11 9 9 10 10 10 10 9 10 10 9 9 9 8 9 9 9 9
12 12 12 12 11 11 11 10 10 10 10 10 10 10 9 10 10 11 11 11 11 10 11 11 11 10 11 10 12 10 12 11 10 10 10 10 9 9 9 9 9 8 8 9 9
11 12 12 12 11 11 11 10 10 10 10 10 10 10 10 9 10 10 10 11 10 10 11 11 11 12 11 11 13 12 13 12 12 10 10 10 10 10 10 10 10 8 8 8 8
11 11 12 12 12 11 11 10 10 10 10 10 10 10 10 10 10 10 10 10 10 10 11 11 12 13 13 11 12 12 13 12 11 11 10 10 10 9 10 10 10 9 9 9 8
11 11 12 12 12 11 11 10 10 10 10 10 10 10 10 10 9 9 10 10 10 11 11 11 12 13 11 11 11 12 13 13 11 12 10 11 11 10 10 11 10 9 10 9 8
11 11 11 12 12 11 11 11 11 11 10 10 10 10 10 10 10 10 9 10 11 11 11 12 13 12 12 12 12 13 14 14 13 11 11 11 13 12 11 12 11 10 10 9 10
11 11 11 11 12 11 11 11 11 11 12 11 11 11 10 10 10 10 10 10 10 11 11 12 12 11 12 12 13 14 13 13 12 12 14 12 15 13 12 12 12 11 11 9 9
11 11 11 11 11 11 11 11 11 11 15 12 11 11 11 11 11 10 10 10 11 11 11 12 12 12 12 13 13 14 13 13 12 14 13 13 14 14 14 13 11 13 12 11 9
11 11 11 11 11 11 11 10 11 11 14 12 12 11 11 11 11 11 10 10 11 11 11 12 12 12 13 12 13 13 12 13 13 14 16 15 14 16 15 13 12 12 12 12 11
10 11 11 11 11 11 11 10 11 13 12 12 12 12 12 12 11 11 11 11 12 12 12 12 12 12 12 13 12 13 14 16 16 16 17 14 14 15 14 13 13 13 13 13 12
10 10 11 11 11 11 10 9 11 13 13 12 12 12 13 12 12 12 12 12 12 12 13 14 14 13 13 13 14 13 15 16 15 17 18 13 15 15 14 14 13 13 13 13 12
9 10 10 11 10 10 10 10 13 12 12 12 12 13 13 13 13 12 12 13 13 12 14 14 14 13 13 13 13 14 13 15 15 16 15 16 15 14 14 14 13 13 13 13 13
9 9 10 10 10 10 8 11 11 11 11 12 13 13 14 13 13 13 13 13 13 13 13 14 14 13 13 13 13 13 14 15 15 15 15 16 15 15 14 13 13 13 13 13 13
9 8 9 9 9 9 9 10 10 10 11 11 12 13 14 14 13 14 14 13 13 13 13 13 14 13 12 13 14 13 14 14 15 15 16 16 16 14 13 13 12 13 13 13 13
8 7 8 8 8 8 9 8 9 10 10 11 11 12 13 13 13 14 14 14 13 13 13 13 14 14 14 13 13 12 13 13 14 15 14 14 15 13 13 13 13 13 13 12 12
7 7 7 7 7 7 7 8 8 9 10 10 11 11 12 13 13 13 13 13 13 13 13 13 14 14 14 12 12 12 12 13 13 14 14 15 15 13 13 12 12 12 12 11 12
6 6 6 6 7 7 7 8 8 8 9 9 10 10 11 12 12 13 13 12 13 13 13 13 13 13 14 14 13 13 12 12 12 13 14 14 13 13 12 10 10 11 11 11 11
5 4 6 5 5 5 7 6 8 8 8 9 9 10 10 12 13 12 13 12 12 12 12 12 13 13 13 12 12 12 12 12 11 12 12 12 12 12 11 10 9 10 10 10 10
4 5 5 5 5 6 5 6 7 7 7 9 9 8 10 10 12 13 13 13 12 12 12 12 12 12 12 12 11 11 12 11 11 11 11 11 11 11 9 9 9 10 10 9 10
4 4 4 3 3 4 5 5 5 6 7 7 7 9 8 9 11 12 12 12 12 12 12 12 12 12 13 11 11 11 11 11 11 11 11 11 11 9 9 8 8 9 9 9 9

GFSSW_700_temp_171.txt.gz
Temp
12 12 12 12 12 12 12 12 12 12 12 12 13 12 12 12 12 12 12 12 12 12 12 12 12 12 11 11 10 10 10 10 10 9 10 10 11 10 10 10 10 9 9 8 7
12 12 12 12 12 12 12 12 12 12 12 12 12 13 12 12 12 12 12 12 12 12 12 12 11 11 12 12 11 11 11 10 11 10 10 11 10 11 11 10 9 8 9 9 8
12 12 12 12 12 12 12 12 12 12 12 12 12 12 12 12 12 11 12 12 12 12 12 11 11 11 13 12 11 11 10 10 10 10 10 10 11 11 11 11 10 9 9 8 7
12 12 12 12 12 12 12 12 12 12 12 12 12 12 12 12 12 11 12 12 12 12 12 11 11 12 13 12 12 10 9 10 10 9 10 10 10 11 11 11 10 9 8 8 7
12 12 12 12 12 12 12 12 12 12 12 12 12 12 12 12 10 12 12 12 12 12 12 11 12 13 13 12 11 10 10 9 10 10 10 9 10 10 10 10 9 8 8 8 8
12 12 12 12 12 12 12 12 12 12 12 12 12 12 12 11 11 12 12 11 11 12 11 11 12 13 13 12 12 11 9 9 9 10 10 9 10 9 10 9 9 8 8 8 7
12 12 12 12 12 12 12 11 11 12 11 11 11 11 11 9 11 12 12 11 11 11 11 11 11 12 12 12 11 11 10 9 9 9 10 10 9 10 9 10 9 9 9 8 8
12 12 12 12 12 11 11 11 11 11 11 11 11 11 10 11 11 11 11 11 11 11 11 11 12 12 12 12 12 12 11 10 10 9 10 10 9 10 10 10 10 10 9 8 8
12 12 12 12 12 11 11 11 11 10 10 11 11 10 11 11 11 10 11 11 11 11 12 12 11 11 13 12 13 13 12 13 11 10 10 9 9 10 9 10 10 10 9 9 8
12 12 12 12 12 11 11 11 10 10 10 10 10 10 10 11 10 10 11 10 10 10 11 11 12 13 14 12 10 14 14 14 12 11 11 10 10 10 10 10 10 10 10 9 9
12 12 12 12 12 12 11 10 10 10 10 10 11 11 11 10 11 10 11 10 11 11 12 12 13 15 14 13 10 13 14 15 13 12 12 12 11 10 11 9 10 11 10 10 9
12 12 12 12 12 12 11 10 11 11 11 10 10 10 11 10 10 10 10 11 11 12 13 13 14 15 14 14 13 13 15 15 13 13 12 13 13 12 11 10 10 10 10 10 9
11 12 12 12 12 12 11 10 11 11 10 11 11 11 11 11 12 11 11 12 12 13 14 14 15 14 14 14 14 15 15 16 15 14 13 13 13 13 12 10 10 10 10 10 10
12 12 12 12 12 12 11 11 11 11 12 13 12 12 11 12 12 12 11 12 13 13 14 14 15 14 14 14 14 16 15 15 15 14 10 14 10 11 13 12 11 11 11 10 10
11 11 12 11 11 11 11 11 11 11 16 13 13 12 12 12 12 12 11 12 13 13 13 14 14 14 14 15 15 16 15 15 15 15 16 16 17 13 15 14 13 11 11 11 10
11 11 11 11 11 12 11 11 11 12 16 14 13 12 12 13 13 12 11 12 13 13 13 14 14 14 15 15 15 15 15 15 16 17 18 18 17 15 13 14 14 13 12 11 11
11 11 11 11 11 11 11 11 11 14 15 15 14 13 13 14 13 12 12 12 13 13 14 14 14 14 14 14 14 15 16 18 17 18 18 17 17 17 15 15 14 14 13 12 11
10 11 11 11 11 11 11 10 13 16 16 15 15 14 14 15 14 13 13 14 14 15 16 16 15 15 14 15 16 15 16 18 17 20 19 16 17 17 16 14 14 13 12 12 11
11 10 10 10 11 11 10 11 13 15 15 15 15 15 15 15 15 14 14 15 15 14 15 17 16 15 15 15 15 16 16 17 17 18 19 19 17 16 15 14 13 13 12 12 11
10 10 8 10 10 10 9 12 14 14 13 14 15 15 16 15 15 15 15 15 15 15 15 16 16 15 15 14 14 15 16 17 17 18 18 19 17 17 15 15 14 14 13 12 11
10 8 9 9 10 9 10 12 13 13 12 13 14 15 16 16 16 16 16 15 15 15 15 15 16 15 15 15 16 15 15 15 16 17 18 18 17 16 15 15 14 14 13 12 11
9 8 9 9 9 9 10 11 12 12 12 12 13 14 15 16 16 15 16 16 15 15 14 15 16 16 16 15 15 15 15 16 17 17 17 17 17 15 14 14 13 13 11 11 11
8 7 8 8 9 11 10 11 11 11 12 12 12 13 14 15 15 15 16 15 15 14 15 15 15 16 17 16 14 14 15 15 16 17 17 17 16 13 13 12 12 12 12 10 10
8 8 7 7 8 9 11 11 10 10 11 12 12 13 13 14 14 15 15 15 14 14 14 14 15 16 17 13 14 14 14 14 15 16 16 16 16 13 13 13 12 11 10 10 9
5 6 6 9 8 8 9 9 10 11 10 11 11 11 12 13 14 14 14 15 14 14 13 13 14 15 15 15 14 14 14 15 14 14 14 15 14 14 14 13 12 11 10 9 9
5 4 4 5 6 6 7 8 9 10 10 10 11 12 12 12 13 13 14 14 14 13 13 13 14 14 14 15 14 14 14 14 14 14 14 13 13 13 12 11 10 10 9 9 8
4 4 5 5 6 7 8 8 8 9 9 9 10 10 10 11 10 11 12 13 14 14 13 13 14 14 14 14 14 14 14 14 14 13 13 13 13 13 12 11 10 10 9 9 8

GFSSW_700_temp_174.txt.gz
Temp
12 12 12 12 12 12 12 12 12 13 13 13 13 12 12 12 12 12 12 13 13 13 13 12 12 11 11 12 12 12 11 11 10 10 10 10 11 11 11 11 11 10 10 10 9
12 12 12 12 12 12 12 12 13 13 12 13 13 13 12 12 12 12 12 12 12 13 13 13 11 12 13 13 12 12 10 10 10 11 11 10 11 12 12 11 10 9 9 8 8
12 12 12 12 12 12 12 12 12 13 13 12 13 13 13 12 12 12 12 12 12 12 12 12 12 13 13 13 12 12 11 11 10 10 10 11 11 12 11 11 10 9 8 8 8
12 12 12 12 12 13 12 12 12 12 12 12 12 13 13 12 12 11 12 12 12 12 13 13 12 13 14 12 10 11 10 11 10 10 10 11 10 12 12 11 11 9 9 8 8
12 12 12 12 12 13 12 12 12 12 12 12 12 12 12 12 11 12 12 12 12 12 12 12 13 14 14 12 11 11 10 11 10 9 9 9 11 11 11 11 10 9 9 8 9
12 12 12 12 12 12 12 12 12 12 12 12 12 12 12 12 10 13 12 12 12 12 12 12 13 14 13 13 13 11 10 9 10 10 10 10 10 11 11 10 10 9 9 9 8
12 12 12 12 12 12 12 12 12 12 12 12 12 12 12 11 10 12 13 12 12 12 12 12 13 13 13 12 13 11 11 10 10 10 10 10 10 9 11 10 10 10 10 9 8
12 12 12 12 12 12 12 11 11 11 12 12 11 11 10 11 10 12 12 12 12 12 11 12 12 12 13 12 12 12 11 11 11 10 11 10 10 10 11 11 11 10 10 9 8
12 12 13 13 12 12 12 11 11 11 11 11 11 11 10 11 12 11 10 11 11 12 12 12 12 12 13 13 12 10 10 11 11 10 11 10 11 10 10 11 10 10 10 9 9
12 12 12 13 13 12 12 11 11 11 11 11 11 11 11 11 11 11 11 11 11 11 12 12 13 13 13 13 11 10 10 10 12 11 10 10 11 11 10 10 10 10 10 10 9
12 12 12 12 12 12 12 11 11 11 11 11 11 12 13 12 11 11 11 11 11 12 12 13 14 15 13 11 12 11 12 12 13 12 11 12 12 11 11 10 10 11 10 11 10
12 12 12 12 12 12 12 11 10 10 11 12 11 12 12 12 11 11 11 12 12 13 13 14 15 14 13 12 13 14 13 14 15 14 13 12 12 10 12 11 10 11 10 11 10
12 12 12 12 12 12 12 13 11 11 11 13 12 12 12 12 13 12 11 12 13 13 14 15 16 15 14 13 13 15 15 16 16 15 14 11 11 11 10 9 10 11 11 10 10
12 12 12 12 12 12 12 12 11 11 11 14 13 13 13 13 13 13 12 13 14 14 15 15 16 16 15 15 16 17 16 16 16 16 14 14 11 11 12 11 10 11 11 11 10
12 12 12 12 11 11 10 11 11 11 14 14 14 14 13 13 14 13 13 13 14 14 15 15 15 15 15 16 16 16 16 16 17 16 15 15 13 12 11 12 11 12 12 11 11
11 12 11 12 12 11 12 11 11 12 16 16 14 14 14 14 14 13 13 13 14 14 15 15 16 16 16 16 16 16 16 16 17 17 18 16 12 12 11 11 9 12 13 12 11
11 11 11 11 12 11 11 11 11 13 16 17 15 15 14 15 15 14 13 13 14 14 15 15 15 15 15 16 16 16 16 17 18 18 18 18 17 14 15 14 14 13 13 13 12
11 11 11 11 11 11 11 10 12 15 16 17 16 16 15 16 16 14 14 14 14 15 16 17 17 16 16 16 16 16 17 18 16 15 14 15 16 15 15 15 14 14 14 13 12
11 11 11 10 11 11 10 10 13 15 17 17 17 16 16 16 16 15 15 15 16 16 16 18 18 16 16 16 16 17 17 17 18 19 20 19 17 17 16 15 14 14 13 13 12
11 11 9 10 10 10 9 11 13 15 16 16 17 17 17 17 16 16 16 16 16 16 16 17 17 17 16 16 16 16 17 17 18 18 18 18 18 17 16 15 15 14 14 13 12
10 9 9 9 10 10 9 11 13 14 14 14 15 16 17 17 17 17 17 17 16 16 16 16 17 17 16 16 16 16 16 16 17 18 19 18 17 16 16 15 15 14 14 13 12
10 8 9 9 9 9 10 11 13 14 14 14 14 14 15 16 17 17 17 17 17 16 16 16 17 17 17 17 17 17 17 17 17 18 17 17 15 16 15 15 15 14 13 13 12
9 9 8 9 9 10 12 12 13 13 14 13 14 14 14 15 16 17 17 17 16 16 16 16 16 17 17 17 16 16 16 16 17 17 17 17 16 13 14 13 13 13 13 12 11
9 8 9 8 9 10 11 12 13 13 12 13 13 14 14 15 15 16 16 17 16 16 15 15 16 17 17 15 13 15 15 16 16 16 17 17 14 14 14 14 13 12 12 11 10
7 8 8 8 10 10 10 11 11 12 12 12 12 13 13 14 15 15 16 16 16 15 15 15 15 15 16 16 16 16 16 16 16 16 15 16 15 14 15 13 13 12 11 10 10
5 4 6 7 7 8 9 9 9 11 12 12 12 12 13 13 13 14 15 15 16 13 14 14 15 15 15 15 16 16 15 15 15 15 15 15 15 15 14 13 12 11 10 10 10
3 5 3 5 6 8 9 9 10 10 10 11 11 12 12 13 12 12 12 13 14 14 14 14 15 15 15 15 15 15 15 15 15 15 15 15 15 14 14 12 12 11 10 10 10